Wind_Speed
12 13 13 13 13 13 12 12 13 13 12 12 13 13 14 14 14 14 15 15 15 17 18 18 18 18 18 18 19 19 19 19 20 20 20 20 20 21
14 14 14 14 14 14 14 15 15 15 14 14 15 15 15 16 15 16 16 16 17 18 18 19 19 19 19 20 20 20 20 21 21 21 21 21 21 21
15 15 15 16 16 16 16 15 15 16 16 17 17 16 17 17 17 17 17 18 18 18 19 20 21 21 21 21 21 22 22 22 22 22 22 22 22 22
16 16 17 18 17 17 17 17 17 17 17 17 18 18 18 18 19 19 19 19 20 20 20 21 21 21 22 22 22 22 23 23 23 23 22 23 23 24
17 17 18 18 18 18 18 18 19 18 18 19 19 19 19 19 19 20 21 21 21 22 22 22 22 22 22 23 23 23 23 23 23 23 23 23 24 25
19 19 19 20 19 20 20 20 21 20 21 21 21 21 22 22 21 22 22 23 23 23 23 23 23 24 23 24 24 25 25 25 25 24 25 25 25 26
20 20 20 20 21 21 22 22 22 22 23 23 23 23 24 24 24 24 24 24 25 25 25 25 25 25 25 25 25 26 26 26 26 26 26 26 26 26
21 22 22 23 23 24 24 24 23 23 24 25 25 25 25 26 26 26 26 25 26 27 27 27 27 27 27 27 27 26 26 27 27 27 27 27 27 27
23 24 24 25 25 26 27 27 26 25 26 27 27 27 27 27 28 28 27 26 26 27 27 27 27 27 27 27 27 27 27 27 28 28 28 27 27 27
25 25 25 26 27 28 29 29 28 27 28 29 29 29 29 29 29 29 29 28 28 28 28 28 29 28 28 28 27 28 28 28 28 28 28 27 27 27
26 27 27 27 28 29 29 29 29 29 30 30 30 29 30 31 31 31 30 30 30 30 30 30 29 30 29 29 29 29 29 29 29 28 28 28 28 28
27 28 29 29 29 30 29 29 30 30 31 32 32 32 32 33 33 33 32 32 31 31 31 31 31 31 29 29 30 30 30 29 29 29 29 29 29 28
29 30 31 31 31 31 32 32 32 31 32 33 34 34 34 34 35 35 34 34 33 32 32 33 33 32 31 31 31 30 30 30 30 30 30 30 30 30
32 32 33 33 33 33 33 33 33 33 33 33 34 34 35 35 35 36 35 35 34 34 33 34 34 34 33 33 32 31 31 30 31 31 31 31 31 30
34 34 34 34 34 35 35 34 34 34 33 33 33 34 35 35 35 35 36 35 34 34 34 33 34 34 34 33 33 32 31 31 31 32 32 32 32 31
35 35 35 35 35 36 35 35 34 34 34 34 34 34 35 35 35 35 35 34 34 34 34 35 35 34 34 34 33 32 32 32 32 32 31 31 31 31
37 36 36 36 36 36 36 35 35 34 33 34 34 34 34 35 35 35 35 34 34 34 34 35 35 35 34 33 33 32 32 32 32 32 32 31 30 29
37 36 36 36 36 36 36 35 35 34 34 34 34 34 34 33 33 33 34 33 34 34 34 35 35 34 34 33 33 32 32 32 32 32 31 31 30 29
37 37 36 36 36 36 36 36 36 35 35 35 35 34 34 33 33 33 33 33 33 33 34 34 35 34 33 33 32 31 31 31 32 31 31 31 30 30
38 38 37 37 37 37 37 37 36 35 35 35 35 34 34 34 34 34 34 34 34 34 34 34 34 34 33 33 32 30 31 32 31 31 32 32 31 30
39 39 39 39 38 38 37 36 36 36 35 35 35 34 34 34 34 33 33 33 34 34 34 33 33 33 32 32 32 31 31 31 31 31 31 30 29 29
39 39 39 39 39 39 38 37 36 36 36 35 35 34 34 34 33 32 32 32 33 32 32 31 30 30 30 31 31 30 30 30 30 30 29 28 28 27
38 38 38 38 38 38 38 37 37 36 36 36 36 35 34 33 32 32 32 32 31 31 30 29 28 28 29 29 29 28 29 29 29 28 27 26 26 25
Wind_Direction
296 295 293 292 290 290 290 289 292 294 295 297 298 299 302 305 302 298 297 296 290 288 290 290 290 288 289 290 289 289 290 288 289 289 288 288 286 284
294 293 291 291 289 288 289 289 289 292 293 294 295 295 298 300 300 299 296 295 294 292 292 291 289 287 288 292 290 288 288 290 291 289 288 287 286 286
295 293 291 291 288 286 286 286 287 289 291 293 293 294 294 296 296 298 297 296 295 295 295 293 291 291 289 289 290 290 290 289 289 288 288 287 286 286
295 293 290 291 288 288 284 282 283 286 289 290 291 292 292 293 294 296 296 294 293 295 296 295 293 291 290 289 289 290 290 290 288 287 287 287 286 287
297 294 291 291 291 288 284 285 283 286 288 288 289 290 290 291 292 294 295 294 293 294 295 297 296 294 293 289 289 290 290 290 288 287 288 288 287 287
298 294 293 291 291 289 287 287 286 286 287 288 288 289 289 290 290 291 292 292 294 295 296 296 296 296 293 291 290 290 290 290 289 287 287 287 287 288
298 294 291 289 288 287 287 287 287 286 287 288 288 289 289 290 290 291 291 292 292 293 295 295 295 295 292 292 291 290 289 288 289 287 286 286 286 286
297 294 290 288 287 287 287 287 287 287 287 288 288 289 289 289 289 290 290 290 290 290 291 292 293 294 293 291 291 290 289 287 286 287 286 286 285 285
296 295 293 290 287 287 288 287 288 287 288 289 288 288 287 287 287 288 289 290 289 289 288 289 291 292 292 291 290 290 288 286 284 284 284 284 284 284
295 294 292 291 290 289 287 287 287 289 288 287 287 287 287 287 287 287 286 287 288 288 288 288 289 290 289 289 289 288 286 285 285 284 284 285 285 284
292 292 292 292 290 289 287 286 286 287 287 287 287 288 288 287 285 285 284 286 286 286 286 287 287 288 287 287 287 286 286 285 284 286 286 286 286 286
291 290 291 292 292 290 287 285 286 287 287 287 287 287 287 287 287 286 284 286 286 285 285 284 284 285 284 285 286 286 285 284 283 284 285 285 286 285
291 291 290 290 290 288 287 286 286 287 288 287 286 285 285 285 285 285 284 285 285 285 284 284 283 284 283 283 284 284 284 284 284 283 284 284 285 285
291 290 289 289 287 286 285 285 285 286 288 287 286 284 284 284 284 284 284 285 285 285 284 284 283 284 284 284 283 282 281 282 283 283 283 283 285 284
291 290 289 289 287 287 285 284 285 286 286 287 287 285 285 286 284 283 282 282 283 284 285 284 284 283 282 282 283 281 278 279 281 282 282 283 284 283
290 289 288 288 288 287 287 286 286 286 286 287 287 286 286 285 284 283 282 282 282 283 283 284 284 282 280 280 281 280 278 278 279 281 282 283 282 281
289 288 288 288 288 287 287 287 287 286 286 286 286 287 287 286 283 283 283 282 282 282 282 283 283 281 279 280 280 279 278 279 280 281 282 282 280 280
288 287 287 287 287 288 287 287 286 284 284 285 286 286 286 285 284 284 284 284 284 283 283 282 282 281 279 280 280 278 278 279 280 280 280 279 279 278
288 287 286 286 286 287 287 287 286 285 285 285 286 286 286 285 284 284 285 284 284 284 283 282 282 281 280 279 278 277 277 278 279 280 279 278 278 277
286 285 284 284 284 285 286 286 286 285 286 286 286 286 286 285 284 285 284 283 283 283 283 283 283 282 279 278 277 276 277 278 278 278 278 278 278 277
285 284 283 283 284 284 285 284 285 286 285 285 286 286 286 285 285 285 285 284 283 284 284 283 283 281 279 279 278 277 278 279 280 279 278 278 277 276
287 286 284 283 283 283 283 283 284 285 286 286 286 286 286 285 284 284 284 284 284 284 284 283 283 282 282 282 280 278 278 279 280 280 279 278 276 275
288 287 286 285 284 283 283 283 283 284 285 285 285 285 286 285 284 283 282 283 283 282 282 282 282 283 282 281 280 278 278 278 279 279 279 277 275 274
Height
5868 5867 5866 5865 5865 5864 5863 5862 5862 5861 5860 5858 5856 5855 5853 5851 5849 5848 5846 5845 5843 5842 5841 5839 5838 5836 5835 5833 5832 5830 5828 5826 5825 5823 5821 5820 5818 5816
5865 5864 5863 5862 5861 5860 5859 5858 5857 5856 5855 5854 5852 5851 5849 5847 5845 5844 5842 5840 5838 5837 5835 5834 5832 5831 5829 5828 5826 5824 5823 5821 5819 5817 5815 5814 5812 5810
5861 5860 5859 5857 5856 5856 5854 5853 5852 5851 5850 5849 5847 5846 5844 5842 5841 5839 5837 5835 5833 5832 5830 5828 5826 5825 5823 5822 5820 5818 5817 5815 5813 5811 5809 5807 5805 5804
5857 5856 5854 5853 5852 5851 5849 5848 5847 5845 5844 5843 5842 5840 5839 5837 5835 5834 5832 5830 5828 5826 5824 5822 5820 5819 5817 5815 5813 5812 5810 5808 5806 5805 5803 5801 5799 5797
5852 5851 5849 5848 5847 5845 5844 5842 5841 5840 5839 5838 5836 5835 5833 5831 5830 5828 5826 5824 5822 5820 5818 5816 5814 5812 5810 5809 5807 5805 5803 5801 5799 5798 5796 5794 5792 5790
5848 5846 5844 5843 5841 5839 5838 5837 5835 5834 5833 5832 5830 5828 5827 5825 5823 5822 5820 5818 5816 5814 5812 5810 5808 5806 5804 5802 5800 5798 5796 5794 5792 5790 5789 5787 5785 5783
5843 5841 5839 5837 5835 5834 5832 5830 5829 5828 5827 5825 5824 5822 5820 5819 5817 5815 5813 5811 5809 5807 5805 5803 5801 5799 5797 5794 5792 5790 5788 5787 5785 5783 5781 5779 5777 5775
5837 5835 5833 5831 5829 5827 5826 5824 5822 5821 5820 5819 5817 5815 5814 5812 5810 5808 5806 5805 5803 5801 5798 5796 5794 5791 5789 5787 5785 5783 5780 5779 5777 5775 5773 5771 5769 5768
5831 5829 5827 5825 5822 5821 5819 5817 5815 5814 5813 5812 5810 5808 5806 5804 5802 5800 5798 5797 5795 5793 5791 5788 5786 5784 5782 5779 5777 5775 5773 5771 5769 5767 5765 5763 5761 5760
5825 5822 5820 5818 5816 5814 5812 5810 5808 5807 5805 5803 5801 5800 5798 5796 5794 5792 5790 5789 5787 5784 5782 5781 5778 5776 5774 5771 5769 5766 5764 5763 5761 5758 5757 5755 5753 5752
5818 5815 5813 5810 5808 5806 5804 5802 5801 5799 5796 5794 5793 5791 5789 5786 5784 5783 5781 5780 5779 5776 5773 5772 5770 5768 5765 5763 5760 5758 5756 5754 5752 5750 5748 5747 5745 5744
5810 5808 5805 5803 5800 5798 5795 5794 5792 5790 5788 5786 5783 5781 5779 5777 5775 5773 5771 5770 5769 5767 5765 5763 5761 5758 5757 5755 5752 5749 5747 5745 5744 5742 5740 5738 5736 5735
5802 5800 5797 5794 5791 5789 5787 5785 5783 5781 5778 5776 5774 5772 5770 5767 5765 5763 5761 5760 5758 5757 5755 5753 5751 5749 5747 5745 5743 5740 5738 5737 5735 5733 5731 5729 5728 5726
5793 5791 5788 5785 5783 5780 5778 5775 5773 5771 5768 5766 5764 5761 5759 5757 5755 5752 5750 5748 5747 5746 5744 5742 5741 5739 5737 5735 5733 5731 5729 5728 5726 5724 5722 5720 5718 5716
5784 5781 5778 5775 5773 5771 5768 5765 5763 5760 5758 5756 5753 5751 5749 5746 5744 5742 5740 5738 5737 5735 5733 5732 5730 5728 5726 5725 5723 5721 5719 5718 5716 5714 5712 5710 5708 5706
5774 5771 5769 5766 5763 5760 5758 5755 5753 5750 5748 5745 5743 5740 5738 5736 5733 5731 5729 5728 5727 5725 5723 5721 5719 5717 5715 5714 5713 5711 5709 5708 5706 5704 5702 5700 5698 5696
5763 5761 5758 5756 5753 5750 5747 5745 5742 5740 5737 5735 5733 5730 5728 5725 5723 5721 5719 5717 5716 5715 5713 5711 5709 5707 5705 5704 5702 5701 5699 5698 5696 5694 5692 5690 5688 5687
5753 5750 5748 5745 5743 5740 5737 5734 5732 5729 5727 5725 5722 5720 5717 5715 5713 5711 5709 5707 5706 5704 5702 5701 5698 5697 5695 5694 5692 5690 5689 5687 5685 5683 5681 5680 5678 5677
5741 5739 5737 5735 5732 5729 5726 5724 5721 5718 5716 5714 5712 5709 5707 5704 5702 5701 5699 5697 5695 5694 5692 5690 5688 5686 5685 5684 5682 5680 5678 5677 5675 5673 5671 5670 5669 5668
5730 5728 5725 5723 5720 5718 5715 5713 5711 5708 5706 5703 5701 5699 5696 5694 5692 5690 5688 5686 5685 5683 5681 5679 5677 5675 5674 5673 5671 5670 5668 5666 5664 5663 5661 5660 5659 5658
5718 5715 5713 5711 5709 5706 5704 5702 5699 5697 5695 5692 5690 5688 5686 5684 5682 5680 5677 5676 5674 5672 5671 5669 5667 5665 5663 5662 5661 5660 5658 5656 5655 5653 5652 5651 5650 5649
5705 5702 5700 5698 5696 5694 5692 5690 5688 5686 5684 5681 5679 5677 5675 5673 5671 5669 5667 5665 5664 5662 5660 5659 5657 5655 5654 5652 5651 5650 5648 5647 5645 5644 5642 5642 5641 5640
5693 5690 5687 5685 5683 5681 5679 5678 5676 5674 5672 5670 5668 5666 5664 5662 5660 5658 5657 5655 5654 5652 5651 5649 5648 5646 5645 5643 5641 5640 5639 5637 5636 5635 5634 5633 5633 5632